Regional Weather Roundup
Issued by NWS

Home | Current Version | Previous Version | Graphics & Text | Print | Product List | Glossary Off
Versions: 1 2 3 4 5 6 7 8 9 10 11 12 13 14 15 16 17 18 19 20 21 22 23 24 25 26 27 28 29 30 31 32 33 34 35 36 37 38 39 40 41 42 43 44 45 46 47 48 49 50

133
ASUS43 KMPX 252201
RWRMN
WEATHER ROUNDUP FOR MINNESOTA
NATIONAL WEATHER SERVICE TWIN CITIES/CHANHASSEN MN
400 PM CST SAT FEB 25 2017


NOTE: "FAIR" INDICATES FEW OR NO CLOUDS BELOW 12,000 FEET WITH NO
SIGNIFICANT WEATHER AND/OR OBSTRUCTIONS TO VISIBILITY. N/A MEANS
CURRENT SKY AND/OR WEATHER CONDITIONS ARE NOT AVAILABLE.

MNZ060>063-068>070-252300-
   Twin Cities Metro

CITY           SKY/WX    TMP DP  RH WIND       PRES   REMARKS
TWIN CITIES    CLOUDY    32  15  49 W13G20    29.89S WCI  22
ST PAUL        CLOUDY    32  15  49 W15       29.90S WCI  22
CRYSTAL        CLOUDY    31  15  52 W14G21    29.88S WCI  21
BLAINE         CLOUDY    34  16  47 W13G18    29.87S WCI  25
LAKEVILLE      CLOUDY    28  19  69 W9        29.90F WCI  20
EDEN PRAIRIE   CLOUDY    31  17  56 W12       29.89S WCI  22
SOUTH ST PAUL  CLOUDY    32  15  49 W12G17    29.90S WCI  23
LAKE ELMO      CLOUDY    32  18  55 W8G17     29.89S WCI  25
$$
MNZ001>005-007-008-013>017-022>024-027-028-252300-
   Northwest Minnesota

CITY           SKY/WX    TMP DP  RH WIND       PRES   REMARKS
BEMIDJI        FLURRIES  28  20  72 SW13      29.73F WCI  17
HALLOCK        PTSUNNY   25  18  74 NW12      29.76S WCI  14
ROSEAU         LGT SNOW  25  18  74 W8        29.72F WCI  16
WARROAD        FLURRIES  23  18  80 W10       29.71F WCI  12
THIEF RVR FALL   N/A    N/A N/A N/A MISG        N/A
CROOKSTON      PTSUNNY   28  19  69 NW14      29.78S WCI  17
FOSSTON        FLURRIES  28  21  74 W13       29.75S WCI  18
DETROIT LAKES  PTSUNNY   30  25  80 W8        29.78S WCI  23
MOORHEAD       RAIN      28  25  86 W12       29.80F WCI  18
PARK RAPIDS    CLOUDY    29  20  69 SW13      29.75F WCI  19
MAHNOMEN       CLOUDY    28  21  75 W10       29.76S WCI  19
$$
MNZ006-009>011-018-025>026-252300-
   North Central Minnesota

CITY           SKY/WX    TMP DP  RH WIND       PRES   REMARKS
BAUDETTE       CLOUDY    23  15  71 SW6       29.69F WCI  16
FLAG ISLAND    LGT SNOW  19  16  86 S6        29.68F WCI  11
INTL FALLS     LGT SNOW  21  14  74 SW7       29.71F WCI  12
WASKISH        CLOUDY    23  18  80 W6        29.72S WCI  16
BIG FORK       FLURRIES  27  18  69 SW13      29.72S WCI  16
LONGVILLE      CLOUDY    28  18  64 SW10      29.75F WCI  19
GRAND RAPIDS   CLOUDY    28  17  63 SW8       29.75F WCI  20
CRANE LAKE     FLURRIES  21  10  63 SW6       29.75S WCI  14
ORR            RAIN      19  10  68 CALM      29.71S
COOK           FLURRIES  21  12  68 W8        29.73F WCI  12
WALKER         CLOUDY    28  19  68 W12G17    29.74S WCI  18
$$
MNZ012-019>021-037-252300-
   Northeast Minnesota

CITY           SKY/WX    TMP DP  RH WIND       PRES   REMARKS
DULUTH         MOSUNNY   25  14  63 W16       29.75F WCI  12
ELY            CLOUDY    19   9  63 W10       29.72R WCI   8
HIBBING        MOSUNNY   23  11  60 SW10      29.73F WCI  12
EVELETH        FLURRIES  22   7  51 SW10      29.75F WCI  12
DULUTH HARBOR  SUNNY     30  16  55 W14G20    29.81F WCI  20
TWO HARBORS    CLOUDY    28  16  59 W10G20    29.75S WCI  19
SILVER BAY     PTSUNNY   27  10  50 SW8       29.74S WCI  18
G MARAIS ARPRT SUNNY     19   0  42 W12G18    29.65S WCI   7
$$
MNZ029>031-032-039>041-046>048-054>057-064-252300-
   West Central Minnesota

CITY           SKY/WX    TMP DP  RH WIND       PRES   REMARKS
FERGUS FALLS   LGT SNOW  28  28 100 NW9       29.83F WCI  20
WHEATON        CLOUDY    36  19  51 SW9       29.82F
MORRIS         CLOUDY    36  19  51 SW16      29.80F
ALEXANDRIA     CLOUDY    33  20  58 SW14G21   29.79F WCI  23
ELBOW LAKE     SNOW      29  28  95 W6        29.80F VSB 1/2 WCI  23
WADENA         LGT SNOW  27  23  86 SW7       29.78S WCI  19
GLENWOOD       CLOUDY    34  19  55 SW15      29.81F WCI  24
APPLETON       MOSUNNY   37  19  48 SW14      29.83F
BENSON         MOSUNNY   37  16  41 W16G22    29.84F
ORTONVILLE     PTSUNNY   36  19  51 SW6       29.81F
MADISON        MOSUNNY   37  21  52 SW16      29.83F
WILLMAR        PTSUNNY   34  23  64 SW18      29.86F WCI  23
$$
MNZ033>034-036-042>043-049>051-058-059-252300-
   Central Minnesota

CITY           SKY/WX    TMP DP  RH WIND       PRES   REMARKS
ST CLOUD       CLOUDY    32  18  56 W13       29.84F WCI  22
SAUK CENTRE    CLOUDY    32  19  59 SW13G20   29.81F WCI  22
PAYNESVILLE    CLOUDY    33  22  64 SW15      29.84F WCI  22
AITKIN         CLOUDY    32  16  51 SW10G16   29.77F WCI  24
PINE RIVER     CLOUDY    28  19  69 SW6G16    29.81S WCI  22
BRAINERD       CLOUDY    29  18  63 SW16      29.79F WCI  17
STAPLES        LGT SNOW  28  21  74 SW9G17    29.78F WCI  20
LONG PRAIRIE   CLOUDY    32  23  69 S10G17    29.81F WCI  24
LITTLE FALLS   CLOUDY    32  19  59 SW9       29.82F WCI  24
LITCHFIELD     CLOUDY    34  21  60 SW6       29.86F WCI  29
BUFFALO        CLOUDY    32  19  58 SW8       29.88F WCI  24
MAPLE LAKE     CLOUDY    33  21  62 SW7       29.87F WCI  26
HUTCHINSON     CLOUDY    33  23  64 SW7       29.88F WCI  27
$$
MNZ037-044-045-052-053-252300-
   East Central Minnesota

CITY           SKY/WX    TMP DP  RH WIND       PRES   REMARKS
PRINCETON      CLOUDY    34  18  51 SW15      29.85F WCI  24
MORA           PTSUNNY   32  18  55 W10       29.85S WCI  24
CAMBRIDGE      CLOUDY    34  18  51 SW8       29.84S WCI  27
RUSH CITY      CLOUDY    30  16  55 W9        29.85F WCI  22
MOOSE LAKE     MOSUNNY   30  16  55 W13G18    29.79S WCI  20
HINCKLEY       CLOUDY    32  18  55 SW12      29.82F WCI  23
CLOQUET        PTSUNNY   27  12  54 W15G21    29.77S WCI  15
MCGREGOR       CLOUDY    30  18  59 W10G18    29.78F WCI  21
$$
MNZ071>073-080-081-089-090-097-098-252300-
   Southwest Minnesota

CITY           SKY/WX    TMP DP  RH WIND       PRES   REMARKS
MONTEVIDEO     CLOUDY    36  19  51 W14       29.86F
GRANITE FALLS  MOSUNNY   37  22  56 S15G23    29.88F
CANBY          CLOUDY    35  19  51 SW12G20   29.86F WCI  27
MARSHALL       PTSUNNY   31  19  61 SW18      29.87F WCI  19
REDWOOD FALLS  PTSUNNY   35  17  47 SW16      29.88F WCI  25
OLIVIA         PTSUNNY   34  21  60 SW15G21   29.86F WCI  24
PIPESTONE      CLOUDY    28  16  59 SW14      29.86F WCI  17
WINDOM         CLOUDY    27  19  74 SW16      29.90F WCI  14
WORTHINGTON    CLOUDY    26  18  71 SW15      29.90F WCI  14
JACKSON        CLOUDY    27  19  74 SW12      29.93F WCI  16
TRACY          CLOUDY    31  20  64 SW17      29.89F WCI  19
SLAYTON        CLOUDY    27  18  70 SW21      29.88F WCI  13
$$
MNZ065>067-074>077-082>085-091>093-252300-
   South Central Minnesota

CITY           SKY/WX    TMP DP  RH WIND       PRES   REMARKS
MANKATO          N/A     27  20  75 SW15      29.93S WCI  15
NEW ULM        CLOUDY    34  19  55 SW14G20   29.91S WCI  24
ST JAMES       MOSUNNY   28  19  69 SW12      29.94F WCI  18
FAIRMONT       CLOUDY    26  18  71 SW16      29.95F WCI  14
GLENCOE        CLOUDY    33  22  65 SW8       29.89S WCI  26
FARIBAULT      CLOUDY    27  18  69 S13       29.93S WCI  16
OWATONNA       CLOUDY    25  16  68 SW10      29.93F WCI  15
WASECA         SUNNY     25  16  68 SW14      29.95F WCI  13
ALBERT LEA     SUNNY     25  16  68 SW9       29.95S WCI  15
$$
MNZ078>079-086>088-094>096-252300-
   Southeast Minnesota

CITY           SKY/WX    TMP DP  RH WIND       PRES   REMARKS
ROCHESTER      SUNNY     21  14  74 W15       29.93S WCI   8
RED WING       PTSUNNY   30  10  43 W10       29.91S WCI  21
STANTON        CLOUDY    31  18  57 W10       29.90F WCI  23
WINONA           N/A     30  12  47 W6        29.96R WCI  24
AUSTIN         SUNNY     23  14  68 SW12      29.95S WCI  12
PRESTON        SUNNY     22  12  65 W12       29.95R WCI  10
$$
ABBREVIATIONS USED IN REMARKS
   TC - TEMPERATURES IN CELSIUS
  WCI - WIND CHILL INDEX
   HX - HEAT INDEX
  VSB - VISIBILITY
$$




USA.gov is the U.S. government's official web portal to all federal, state and local government web resources and services.